User: anonymous
Location: Caltech
(34.1382°N, 118.1253°W)
Time: 20:19:01
(UTC-07:00)
Language:

Iridium 59 - Orbit

View from above orbital plane
View from above orbital plane
View from above satellite
View from above satellite

Ground track
Ground track

The orbit data is extracted from the following two-line orbital elements,

1 25275U 98019D   14113.41418307  .00000670  00000-0  23204-3 0  3166
2 25275 086.3995 048.3813 0002099 101.3288 258.8144 14.34221766841127
Epoch (UTC): 23 April 2014 09:56:25
Eccentricity: 0.0002099
inclination: 86.3995°
perigee height: 776 km
apogee height: 779 km
right ascension of ascending node: 48.3813°
argument of perigee: 101.3288°
revolutions per day: 14.34221766
mean anomaly at epoch: 258.8144°
orbit number at epoch: 84112

The dashed part of the orbit path shows where the satellite is in the earth's shadow,  

DLR